GW4777 Weather Reports


time (UTC)temp
C
wind
direction
speed
KPH
gust
KPH
rain 1hr
cm
rain 24hr
cm
rain mn
cm
humidity
%
barometer
mb
20260510045128 22 91 0.0 0.0 0.00 0.03 0.03 68 1008.3
20260510044625 22 172 1.6 3.2 0.00 0.03 0.03 68 1008.2
20260510044122 22 114 1.6 1.6 0.00 0.03 0.03 67 1008.3
20260510043618 22 94 1.6 1.6 0.00 0.03 0.03 67 1008.3
20260510043114 22 59 1.6 3.2 0.00 0.03 0.03 67 1008.3
20260510042613 22 156 0.0 0.0 0.00 0.03 0.03 67 1008.4
20260510042108 22 113 1.6 1.6 0.00 0.03 0.03 67 1008.0
20260510041605 23 101 1.6 1.6 0.00 0.03 0.03 66 1008.2
20260510041103 23 71 0.0 0.0 0.00 0.03 0.03 65 1008.3
20260510040559 23 89 0.0 0.0 0.00 0.03 0.03 64 1008.2
20260510040055 23 112 0.0 1.6 0.00 0.03 0.03 64 1008.0
20260510035552 23 118 1.6 1.6 0.00 0.03 0.03 64 1007.9
20260510035051 23 97 0.0 1.6 0.00 0.03 0.03 64 1007.6
20260510034550 23 111 0.0 1.6 0.00 0.03 0.03 63 1007.6
20260510034047 23 76 0.0 1.6 0.00 0.03 0.03 62 1007.5
20260510033542 23 90 0.0 0.0 0.00 0.03 0.03 62 1007.4
20260510033041 24 81 0.0 1.6 0.00 0.03 0.03 61 1007.5
20260510032537 24 102 0.0 0.0 0.00 0.03 0.03 61 1007.3
20260510032032 24 185 1.6 3.2 0.00 0.03 0.03 61 1007.3
20260510031527 24 121 0.0 1.6 0.00 0.03 0.03 60 1007.2
20260510031023 25 100 0.0 1.6 0.00 0.03 0.03 60 1007.0
20260510030519 25 187 3.2 4.8 0.00 0.03 0.03 60 1006.9
20260510030017 25 101 0.0 1.6 0.00 0.03 0.03 60 1006.7
20260510025513 25 94 1.6 1.6 0.00 0.03 0.03 60 1006.3
20260510025011 25 210 1.6 1.6 0.00 0.03 0.03 59 1006.4
20260510024508 25 136 3.2 4.8 0.00 0.03 0.03 59 1006.3
20260510024004 25 98 0.0 1.6 0.00 0.03 0.03 59 1006.3
20260510023500 25 119 1.6 3.2 0.00 0.03 0.03 59 1006.1
20260510022957 25 107 1.6 3.2 0.00 0.03 0.03 59 1006.0
20260510022456 25 186 1.6 3.2 0.00 0.03 0.03 58 1006.0
20260510021955 25 109 1.6 1.6 0.00 0.03 0.03 58 1005.9
20260510021453 25 121 3.2 3.2 0.00 0.03 0.03 58 1005.7
20260510020950 25 146 1.6 1.6 0.00 0.03 0.03 58 1005.7
20260510020450 25 124 0.0 1.6 0.00 0.03 0.03 57 1005.4
20260510015946 25 94 1.6 1.6 0.00 0.03 0.03 57 1005.5
20260510015442 25 117 3.2 4.8 0.00 0.03 0.03 57 1005.3
20260510014937 26 203 3.2 3.2 0.00 0.03 0.03 57 1005.3
20260510014435 26 150 1.6 1.6 0.00 0.03 0.03 57 1005.1
20260510013931 26 110 3.2 3.2 0.00 0.03 0.03 57 1005.1
20260510013426 26 34 1.6 3.2 0.00 0.03 0.03 57 1005.3
20260510012922 26 96 1.6 1.6 0.00 0.03 0.03 57 1005.0
20260510012417 26 25 3.2 3.2 0.00 0.03 0.03 57 1004.9
20260510011912 26 126 1.6 1.6 0.00 0.03 0.03 56 1005.0
20260510011407 26 109 1.6 3.2 0.00 0.03 0.03 57 1005.1
20260510010904 26 154 1.6 3.2 0.00 0.03 0.03 56 1005.2
20260510010401 26 177 1.6 1.6 0.00 0.03 0.03 56 1005.3
20260510005858 27 68 1.6 3.2 0.00 0.03 0.03 55 1005.2
20260510005354 27 74 3.2 3.2 0.00 0.03 0.03 55 1005.0
20260510004852 27 220 6.4 11.3 0.00 0.03 0.03 55 1005.0
20260510004349 27 99 1.6 3.2 0.00 0.03 0.03 54 1004.9
20260510003847 27 181 9.7 12.9 0.00 0.03 0.03 54 1005.0
20260510003343 27 211 3.2 3.2 0.00 0.03 0.03 54 1005.0
20260510002842 27 230 3.2 4.8 0.00 0.03 0.03 53 1004.9
20260510002339 27 126 6.4 11.3 0.00 0.03 0.03 53 1004.7
20260510001836 27 112 1.6 1.6 0.00 0.03 0.03 53 1004.9
20260510001334 27 157 1.6 3.2 0.00 0.03 0.03 53 1004.8
20260510000830 27 131 1.6 1.6 0.00 0.03 0.03 52 1005.0
20260510000328 27 200 6.4 11.3 0.00 0.03 0.03 53 1005.1
20260509235824 27 56 1.6 1.6 0.00 0.03 0.03 54 1004.9
20260509235321 28 133 3.2 6.4 0.00 0.03 0.03 52 1004.9
20260509234817 28 189 1.6 3.2 0.00 0.03 0.03 51 1004.9
20260509234313 28 359 4.8 6.4 0.00 0.03 0.03 51 1005.2
20260509233812 28 189 4.8 6.4 0.00 0.03 0.03 51 1005.3
20260509233309 28 83 8.0 11.3 0.00 0.03 0.03 52 1005.3
20260509232805 27 172 14.5 17.7 0.00 0.03 0.03 53 1005.5
20260509232306 27 134 3.2 6.4 0.00 0.03 0.03 56 1005.4
20260509231759 27 152 6.4 6.4 0.13 0.03 0.03 57 1005.4
20260509231256 28 146 4.8 6.4 0.13 0.03 0.03 57 1005.7
20260509230754 27 105 4.8 11.3 0.00 0.00 0.00 54 1005.9
20260509230250 27 183 3.2 6.4 0.00 0.00 0.00 57 1005.8
20260509225745 27 177 3.2 4.8 0.00 0.00 0.00 57 1006.3
20260509225242 29 103 6.4 11.3 0.00 0.00 0.00 49 1006.0
20260509224737 29 160 3.2 4.8 0.00 0.00 0.00 46 1006.2
20260509224235 30 199 1.6 3.2 0.00 0.00 0.00 45 1005.9
20260509223732 30 94 3.2 4.8 0.00 0.00 0.00 45 1005.9
20260509223229 30 120 1.6 1.6 0.00 0.00 0.00 45 1006.0
20260509222725 30 127 3.2 3.2 0.00 0.00 0.00 44 1005.9
20260509222221 31 125 9.7 12.9 0.00 0.00 0.00 42 1005.9
20260509221716 30 97 1.6 4.8 0.00 0.00 0.00 43 1006.2
20260509221213 31 96 1.6 3.2 0.00 0.00 0.00 42 1006.1
20260509220709 32 157 6.4 12.9 0.00 0.00 0.00 41 1006.4
20260509220206 32 269 3.2 3.2 0.00 0.00 0.00 41 1006.2
20260509215701 32 112 1.6 1.6 0.00 0.00 0.00 40 1006.6
20260509215158 32 180 1.6 1.6 0.00 0.00 0.00 40 1006.4
20260509214655 32 160 1.6 4.8 0.00 0.00 0.00 40 1006.3
20260509214152 32 115 4.8 4.8 0.00 0.00 0.00 41 1006.5
20260509213649 32 96 3.2 3.2 0.00 0.00 0.00 41 1006.6
20260509213144 32 56 1.6 3.2 0.00 0.00 0.00 41 1006.7
20260509212642 32 196 6.4 9.7 0.00 0.00 0.00 40 1006.9
20260509212139 32 205 3.2 4.8 0.00 0.00 0.00 40 1006.9
20260509211635 31 106 1.6 1.6 0.00 0.00 0.00 42 1006.9
20260509211132 32 168 3.2 4.8 0.00 0.00 0.00 41 1007.1
20260509210629 32 148 3.2 4.8 0.00 0.00 0.00 40 1007.2
20260509210125 32 164 0.0 1.6 0.00 0.00 0.00 42 1007.3
20260509205620 32 138 3.2 4.8 0.00 0.00 0.00 41 1007.4
20260509205115 32 66 0.0 1.6 0.00 0.00 0.00 42 1007.5
20260509204611 32 206 4.8 6.4 0.00 0.00 0.00 41 1007.6
20260509204108 32 170 3.2 3.2 0.00 0.00 0.00 42 1007.7
20260509203604 32 94 1.6 1.6 0.00 0.00 0.00 42 1008.0
20260509203103 32 160 3.2 3.2 0.00 0.00 0.00 42 1008.0
20260509202556 32 178 1.6 1.6 0.00 0.00 0.00 42 1008.1
20260509202052 32 163 3.2 6.4 0.00 0.00 0.00 42 1008.1
20260509201547 32 134 6.4 9.7 0.00 0.00 0.00 42 1008.1
20260509201045 31 184 3.2 3.2 0.00 0.00 0.00 43 1008.1
20260509200544 31 179 3.2 4.8 0.00 0.00 0.00 44 1008.5
20260509200042 32 129 3.2 3.2 0.00 0.00 0.00 43 1008.5
20260509195537 31 89 6.4 9.7 0.00 0.00 0.00 44 1008.4
20260509195037 31 107 1.6 1.6 0.00 0.00 0.00 44 1008.6
20260509194532 31 205 1.6 1.6 0.00 0.00 0.00 44 1008.6
20260509194030 31 96 0.0 0.0 0.00 0.00 0.00 45 1008.8
20260509193530 30 165 8.0 12.9 0.00 0.00 0.00 46 1008.9
20260509193027 31 161 3.2 4.8 0.00 0.00 0.00 45 1008.8
20260509192523 31 151 1.6 1.6 0.00 0.00 0.00 45 1008.9
20260509192019 31 131 0.0 0.0 0.00 0.00 0.00 46 1009.1
20260509191513 30 351 3.2 3.2 0.00 0.00 0.00 46 1009.2
20260509191009 30 176 4.8 9.7 0.00 0.00 0.00 45 1009.4
20260509190506 30 159 4.8 6.4 0.00 0.00 0.00 46 1009.4
20260509190005 30 189 3.2 3.2 0.00 0.00 0.00 45 1009.3
20260509185501 30 162 1.6 3.2 0.00 0.00 0.00 45 1009.4
20260509184958 31 116 1.6 1.6 0.00 0.00 0.00 44 1009.7
20260509184456 30 99 0.0 0.0 0.00 0.00 0.00 44 1009.8
20260509183952 30 118 0.0 1.6 0.00 0.00 0.00 45 1009.9
20260509183447 30 193 3.2 3.2 0.00 0.00 0.00 46 1010.0
20260509182943 30 156 1.6 3.2 0.00 0.00 0.00 46 1010.2
20260509182439 30 239 3.2 4.8 0.00 0.00 0.00 47 1010.2
20260509181937 30 147 1.6 3.2 0.00 0.00 0.00 45 1010.3
20260509181435 30 136 1.6 1.6 0.00 0.00 0.00 45 1010.3
20260509180932 30 104 0.0 1.6 0.00 0.00 0.00 46 1010.5
20260509180427 30 138 0.0 1.6 0.00 0.00 0.00 48 1010.5
20260509175924 30 159 1.6 3.2 0.00 0.00 0.00 46 1010.7
20260509175421 28 105 1.6 1.6 0.00 0.00 0.00 51 1010.6
20260509174918 29 112 0.0 0.0 0.00 0.00 0.00 49 1010.7
20260509174414 28 102 0.0 1.6 0.00 0.00 0.00 49 1010.8
20260509173910 28 106 1.6 3.2 0.00 0.00 0.00 49 1011.0
20260509173409 28 141 0.0 1.6 0.00 0.00 0.00 50 1010.8
20260509172906 27 121 1.6 1.6 0.00 0.00 0.00 51 1011.0
20260509172403 28 128 0.0 1.6 0.00 0.00 0.00 50 1011.1
20260509171858 28 67 1.6 1.6 0.00 0.00 0.00 51 1011.1
20260509171355 28 94 0.0 0.0 0.00 0.00 0.00 50 1011.5
20260509170851 28 115 0.0 1.6 0.00 0.00 0.00 49 1011.2
20260509170348 28 105 1.6 1.6 0.00 0.00 0.00 50 1011.5
20260509165848 28 112 0.0 0.0 0.00 0.00 0.00 51 1011.5
20260509165342 28 96 1.6 1.6 0.00 0.00 0.00 52 1011.7
20260509164838 28 136 1.6 3.2 0.00 0.00 0.00 50 1011.7
20260509164335 27 89 0.0 1.6 0.00 0.00 0.00 52 1011.8
20260509163831 27 126 0.0 0.0 0.00 0.00 0.00 53 1011.7
20260509163328 27 82 0.0 0.0 0.00 0.00 0.00 54 1011.8
20260509162828 27 356 0.0 1.6 0.00 0.00 0.00 52 1012.0
20260509162325 27 133 1.6 1.6 0.00 0.00 0.00 53 1012.2
20260509161822 27 89 0.0 1.6 0.00 0.00 0.00 51 1011.9
20260509161319 27 118 0.0 1.6 0.00 0.00 0.00 51 1012.1
20260509160814 28 92 0.0 1.6 0.00 0.00 0.00 52 1011.8
20260509160310 27 112 0.0 0.0 0.00 0.00 0.00 54 1012.0
20260509155806 27 164 1.6 1.6 0.00 0.00 0.00 54 1012.0
20260509155306 26 122 0.0 0.0 0.00 0.00 0.00 57 1012.0
20260509154758 26 128 0.0 0.0 0.00 0.00 0.00 54 1012.0
20260509154256 25 124 0.0 0.0 0.00 0.00 0.00 57 1012.0
20260509153753 26 80 0.0 0.0 0.00 0.00 0.00 54 1012.0
20260509153248 26 115 0.0 0.0 0.00 0.00 0.00 56 1012.1
20260509152745 26 163 3.2 3.2 0.00 0.00 0.00 55 1012.3
20260509152242 25 113 0.0 1.6 0.00 0.00 0.00 58 1012.5
20260509151739 25 127 0.0 1.6 0.00 0.00 0.00 58 1012.0
20260509151235 25 196 1.6 1.6 0.00 0.00 0.00 58 1012.1
20260509150734 25 121 0.0 0.0 0.00 0.00 0.00 59 1012.0
20260509150232 25 117 0.0 0.0 0.00 0.00 0.00 60 1012.1
20260509145729 25 113 1.6 1.6 0.00 0.00 0.00 60 1012.3
20260509145228 24 155 3.2 3.2 0.00 0.00 0.00 62 1012.2
20260509144725 23 81 0.0 0.0 0.00 0.00 0.00 64 1012.1
20260509144222 22 187 1.6 1.6 0.00 0.00 0.00 66 1012.2
20260509143719 23 124 3.2 3.2 0.00 0.00 0.00 64 1012.5
20260509143217 23 134 1.6 1.6 0.00 0.00 0.00 66 1012.5
20260509142712 22 139 0.0 1.6 0.00 0.00 0.00 67 1012.3
20260509142209 22 132 0.0 0.0 0.00 0.00 0.00 68 1012.2
20260509141704 22 113 1.6 3.2 0.00 0.00 0.00 69 1012.5
20260509141202 21 130 0.0 0.0 0.00 0.00 0.00 69 1012.7
20260509140658 21 175 1.6 3.2 0.00 0.00 0.00 72 1012.5
20260509140156 20 78 0.0 0.0 0.00 0.00 0.00 73 1012.5
20260509135653 20 97 0.0 0.0 0.00 0.00 0.00 74 1012.5
20260509135151 20 90 0.0 0.0 0.00 0.00 0.00 76 1012.5
20260509134647 20 81 0.0 0.0 0.00 0.00 0.00 75 1012.5
20260509134145 20 94 0.0 0.0 0.00 0.00 0.00 74 1012.3
20260509133642 19 119 0.0 0.0 0.00 0.00 0.00 77 1012.2
20260509133139 18 107 0.0 0.0 0.00 0.00 0.00 79 1012.2
20260509132637 17 117 0.0 0.0 0.00 0.00 0.00 82 1012.5
20260509132135 17 113 1.6 1.6 0.00 0.00 0.00 85 1012.2
20260509131631 16 114 0.0 0.0 0.00 0.00 0.00 88 1012.3
20260509131128 16 108 0.0 0.0 0.00 0.00 0.00 89 1012.5
20260509130624 15 120 0.0 0.0 0.00 0.00 0.00 90 1012.2
20260509130121 15 130 0.0 0.0 0.00 0.00 0.00 91 1012.5
20260509125617 15 122 0.0 0.0 0.00 0.00 0.00 92 1012.1
20260509125114 15 126 0.0 0.0 0.00 0.00 0.00 92 1012.1
20260509124610 14 129 0.0 0.0 0.00 0.00 0.00 92 1012.0
20260509124108 14 135 0.0 0.0 0.00 0.00 0.00 92 1012.1
20260509123606 14 130 0.0 0.0 0.00 0.00 0.00 92 1011.9
20260509123102 14 120 0.0 0.0 0.00 0.00 0.00 92 1011.9
20260509122558 13 133 0.0 0.0 0.00 0.00 0.00 92 1012.0
20260509122056 13 131 0.0 0.0 0.00 0.00 0.00 92 1012.0
20260509121552 13 127 0.0 0.0 0.00 0.00 0.00 92 1011.7
20260509121049 13 138 0.0 0.0 0.00 0.00 0.00 92 1011.6
20260509120547 13 110 0.0 0.0 0.00 0.00 0.00 92 1011.6
20260509120046 13 117 0.0 0.0 0.00 0.00 0.00 92 1011.6
20260509115542 13 119 0.0 0.0 0.00 0.00 0.00 92 1011.6
20260509115040 13 131 0.0 0.0 0.00 0.00 0.00 92 1011.5
20260509114538 13 126 0.0 0.0 0.00 0.00 0.00 92 1011.6
20260509114037 13 153 0.0 0.0 0.00 0.00 0.00 92 1011.4
20260509113534 13 133 0.0 0.0 0.00 0.00 0.00 91 1011.4
20260509113032 13 152 0.0 0.0 0.00 0.00 0.00 91 1011.5
20260509112528 14 130 0.0 0.0 0.00 0.00 0.00 91 1011.2
20260509112025 14 134 0.0 0.0 0.00 0.00 0.00 91 1011.1
20260509111522 14 131 0.0 0.0 0.00 0.00 0.00 91 1011.2
20260509111019 14 131 0.0 0.0 0.00 0.00 0.00 91 1010.9
20260509110516 14 134 0.0 0.0 0.00 0.00 0.00 90 1010.8
20260509110013 15 121 0.0 0.0 0.00 0.00 0.00 91 1010.6
20260509105512 15 113 0.0 0.0 0.00 0.00 0.00 90 1010.7
20260509105009 15 119 0.0 0.0 0.00 0.00 0.00 90 1010.9
20260509104505 15 117 0.0 0.0 0.00 0.00 0.00 90 1010.8
20260509104002 15 117 0.0 0.0 0.00 0.00 0.00 90 1010.7
20260509103500 15 119 0.0 0.0 0.00 0.00 0.00 90 1010.7
20260509102958 15 116 0.0 0.0 0.00 0.00 0.00 90 1010.6
20260509102455 15 114 0.0 0.0 0.00 0.00 0.00 90 1010.7
20260509101951 15 126 0.0 0.0 0.00 0.00 0.00 90 1010.5
20260509101448 15 117 0.0 0.0 0.00 0.00 0.00 90 1010.4
20260509100945 15 118 0.0 0.0 0.00 0.00 0.00 89 1010.5
20260509100442 15 114 0.0 0.0 0.00 0.00 0.00 89 1010.1
20260509095939 15 113 0.0 0.0 0.00 0.00 0.00 89 1010.0
20260509095436 15 105 0.0 0.0 0.00 0.00 0.00 89 1009.9
20260509094933 15 119 0.0 0.0 0.00 0.00 0.00 89 1010.1
20260509094429 15 119 0.0 0.0 0.00 0.00 0.00 88 1010.0
20260509093927 15 112 0.0 0.0 0.00 0.00 0.00 88 1009.9
20260509093424 15 122 0.0 0.0 0.00 0.00 0.00 87 1009.8
20260509092923 15 121 0.0 0.0 0.00 0.00 0.00 87 1009.9
20260509092420 15 121 0.0 0.0 0.00 0.00 0.00 86 1010.1
20260509091919 15 116 0.0 0.0 0.00 0.00 0.00 86 1010.2
20260509091415 15 117 0.0 0.0 0.00 0.00 0.00 86 1010.2
20260509090912 15 120 0.0 0.0 0.00 0.00 0.00 86 1010.2
20260509090409 15 122 0.0 0.0 0.00 0.00 0.00 86 1010.3
20260509085907 15 116 0.0 0.0 0.00 0.00 0.00 86 1010.3
20260509085404 15 121 0.0 0.0 0.00 0.00 0.00 86 1010.1
20260509084900 15 121 0.0 0.0 0.00 0.00 0.00 86 1010.2
20260509084357 15 117 0.0 0.0 0.00 0.00 0.00 86 1010.3
20260509083855 15 122 0.0 0.0 0.00 0.00 0.00 86 1010.2
20260509083351 15 110 0.0 0.0 0.00 0.00 0.00 86 1010.4
20260509082848 15 118 0.0 0.0 0.00 0.00 0.00 85 1010.4
20260509082345 15 114 0.0 0.0 0.00 0.00 0.00 85 1010.3
20260509081842 15 123 0.0 0.0 0.00 0.00 0.00 84 1010.4
20260509081339 15 131 0.0 0.0 0.00 0.00 0.00 84 1010.4
20260509080837 15 108 0.0 0.0 0.00 0.00 0.00 84 1010.5
20260509080335 15 134 0.0 0.0 0.00 0.00 0.00 83 1010.5
20260509075833 16 126 0.0 0.0 0.00 0.00 0.00 83 1010.7
20260509075330 16 111 0.0 0.0 0.00 0.00 0.00 83 1010.5
20260509074827 16 123 0.0 0.0 0.00 0.00 0.00 83 1010.5
20260509074324 16 122 0.0 0.0 0.00 0.00 0.00 82 1010.7
20260509073820 16 126 0.0 0.0 0.00 0.00 0.00 82 1010.7
20260509073317 16 132 0.0 0.0 0.00 0.00 0.00 82 1011.0
20260509072814 16 121 0.0 0.0 0.00 0.00 0.00 82 1010.8
20260509072310 16 124 0.0 0.0 0.00 0.00 0.00 82 1010.8
20260509071807 16 132 1.6 1.6 0.00 0.00 0.00 82 1010.7
20260509071304 16 178 0.0 1.6 0.00 0.00 0.00 81 1010.8
20260509070801 16 132 1.6 3.2 0.00 0.00 0.00 80 1010.9
20260509070257 17 176 1.6 1.6 0.00 0.00 0.00 78 1010.9
20260509065754 17 150 1.6 3.2 0.00 0.00 0.00 74 1010.7
20260509065250 18 81 1.6 3.2 0.00 0.00 0.00 72 1010.7
20260509064746 18 176 1.6 1.6 0.00 0.00 0.00 70 1010.6
20260509064244 18 137 0.0 0.0 0.00 0.00 0.00 70 1010.6
20260509063741 18 127 0.0 0.0 0.00 0.00 0.00 70 1010.6
20260509063237 18 127 0.0 0.0 0.00 0.00 0.00 70 1010.8
20260509062735 18 133 0.0 0.0 0.00 0.00 0.00 71 1010.9
20260509062232 18 133 0.0 0.0 0.00 0.00 0.00 71 1010.8
20260509061729 18 144 0.0 0.0 0.00 0.00 0.00 71 1010.7
20260509061227 18 138 0.0 0.0 0.00 0.00 0.00 72 1010.8
20260509060724 18 149 0.0 0.0 0.00 0.00 0.00 72 1010.7
20260509060220 18 129 0.0 0.0 0.00 0.00 0.00 72 1010.8
20260509055716 18 140 1.6 1.6 0.00 0.00 0.00 73 1010.7
20260509055212 18 147 1.6 1.6 0.00 0.00 0.00 74 1010.7
20260509054708 18 140 0.0 0.0 0.00 0.00 0.00 75 1010.9
20260509054206 18 148 1.6 1.6 0.00 0.00 0.00 75 1010.8
20260509053704 18 161 0.0 1.6 0.00 0.00 0.00 77 1010.9
20260509053201 18 166 0.0 1.6 0.00 0.00 0.00 80 1011.1
20260509052659 18 157 1.6 1.6 0.00 0.00 0.00 82 1011.0
20260509052156 18 136 0.0 0.0 0.00 0.00 0.00 82 1010.9
20260509051654 18 125 0.0 0.0 0.00 0.00 0.00 82 1010.9
20260509051151 18 146 0.0 0.0 0.00 0.00 0.00 82 1010.8
20260509050648 18 132 1.6 1.6 0.00 0.00 0.00 83 1010.9
20260509050144 18 136 0.0 0.0 0.00 0.00 0.00 82 1010.8
20260509045642 18 106 3.2 3.2 0.00 0.00 0.00 82 1011.1